Location: Caltech
(34.1382°N, 118.1253°W)
Time: 18:24:55
(UTC-07:00)

BREEZE M DEB (TANK) - Visible Passes

Search period start: 01 April 2015 00:00
Search period end: 11 April 2015 00:00
Orbit: 329 x 13794 km, 49.5° (Epoch: 31 March)

Date Brightness Start Highest point End Pass type
(mag) Time Alt. Az. Time Alt. Az. Time Alt. Az.
01 Apr 9.2 02:11:56 33° S 03:18:29 69° SE 04:39:46 10° NE visible
01 Apr 9.5 23:45:47 17° SE 00:19:52 28° ESE 01:51:30 10° NE visible
02 Apr 9.2 04:04:31 27° SW 05:46:33 80° NW 06:40:13 10° ENE visible
03 Apr 9.2 01:38:07 36° SSE 02:31:55 61° ESE 03:59:08 10° NE visible
03 Apr 8.9 06:01:15 10° WSW 08:11:54 62° N 08:38:55 10° ENE visible
03 Apr 9.6 23:11:32 14° ESE 23:37:00 21° ESE 01:06:42 10° NE visible
04 Apr 9.1 03:30:11 35° SSW 04:57:47 86° NW 06:00:20 10° NE visible
05 Apr 9.2 01:03:23 37° SSE 01:46:03 54° ESE 03:17:53 10° NE visible
05 Apr 9.1 05:22:01 15° WSW 07:26:42 65° NNW 07:59:25 10° ENE visible
05 Apr 9.6 22:36:25 10° ESE 22:54:31 15° E 00:18:56 10° ENE visible
06 Apr 9.1 02:54:59 41° SSW 04:08:28 87° SE 05:20:03 10° NE visible
07 Apr 9.3 00:27:48 35° SE 01:00:55 46° ESE 02:35:57 10° NE visible
07 Apr 9.2 04:46:21 23° WSW 06:39:55 68° NNW 07:19:34 10° ENE visible
08 Apr 9.1 02:18:57 46° S 03:19:14 80° SE 04:39:20 10° NE visible
08 Apr 9.3 23:51:24 31° SE 00:16:29 39° ESE 01:53:06 10° NE visible
09 Apr 9.2 04:09:52 31° SW 05:51:29 72° NNW 06:39:23 10° ENE visible
10 Apr 9.1 01:42:08 49° S 02:30:34 73° SE 03:58:07 10° NE visible
10 Apr 8.7 06:07:19 10° W 08:14:47 62° N 08:37:39 10° E visible
